Content
SEND FEEDBACK

Daily
Averages
Monthly
Summary
United States of America

TIFFANY, NEW MEXICO


Home > North America > United States > New Mexico
Elevation: 4490 feet     Latitude: 33 41N     Longitude: 106 59W

WEATHER
 
SELECT A DAY
Number of Records: 122,320;   Date Range: 1/4/95 - 12/26/14
 
SHARE

PRINT THIS DATA

[ ← Previous Day ]
WEATHER ALMANAC - JANUARY 23, 2013
[ Next Day → ]
[ °C ]   °F
Weather ElementAverageHighLow
Temperature41.6 °F61.9 °F (3:35 pm)27.5 °F (7:15 am)
Dewpoint8.7 °F10.4 °F (5:15 pm)5 °F (12:35 am)
Humidity27.9 %44 % (5:55 am)13 % (3:15 pm)
Barometer30.34 in30.42 in (10:15 am)30.28 in (4:55 pm)
Wind Speed5.9 mph11.5 mph (1:35 am)
Weather ElementAverage
Visibility10 mi
Wind DirectionSW (230 °)

Weather ElementTotal
Precipitation---
Heating Degree Days20.3 (Base 65)
Averaged from 70 records on January 23, 2013
WEATHER CONDITIONS BREAKOUT
WIND DIRECTION BREAKOUT
WEATHER BY HOUR - JANUARY 23, 2013
[ °C ]   °F
Local TimeTemperatureDewpointHumidityBarometerVisibilityWind DirectionWind SpeedGust SpeedPrecipitationEventsConditions
12:35 AM34.7 °F5.0 °F29 %30.32 in10.0 miNW (320°)8.1 mphClear
12:55 AM33.6 °F5.0 °F30 %30.32 in10.0 miNW (310°)5.8 mphClear
1:15 AM31.8 °F5.0 °F32 %30.32 in10.0 miNNW (330°)6.9 mphClear
1:35 AM32.0 °F5.4 °F33 %30.33 in10.0 miNNW (330°)11.5 mphClear
1:55 AM33.6 °F5.9 °F31 %30.34 in10.0 miNW (310°)5.8 mphClear
2:15 AM33.1 °F6.1 °F32 %30.34 in10.0 miWNW (300°)5.8 mphClear
2:35 AM32.2 °F5.9 °F33 %30.34 in10.0 miNW (320°)6.9 mphClear
2:55 AM30.9 °F5.9 °F35 %30.35 in10.0 miNW (320°)6.9 mphClear
3:15 AM32.0 °F6.4 °F34 %30.35 in10.0 miNW (320°)8.1 mphClear
3:35 AM31.1 °F6.6 °F36 %30.35 in10.0 miNW (320°)8.1 mphClear
3:55 AM30.2 °F7.3 °F38 %30.35 in10.0 miNW (310°)8.1 mphClear
4:15 AM29.8 °F7.5 °F39 %30.35 in10.0 miNNW (340°)8.1 mphClear
4:35 AM30.0 °F6.8 °F38 %30.35 in10.0 miNNW (330°)8.1 mphClear
4:55 AM29.3 °F7.2 °F39 %30.35 in10.0 miNNW (330°)8.1 mphClear
5:15 AM30.0 °F7.7 °F39 %30.35 in10.0 miNW (320°)10.4 mphClear
5:35 AM28.6 °F7.7 °F41 %30.35 in10.0 miNNW (330°)9.2 mphClear
5:55 AM28.0 °F8.4 °F44 %30.36 in10.0 miNNW (330°)9.2 mphClear
6:15 AM28.4 °F8.6 °F43 %30.36 in10.0 miNorth (350°)6.9 mphClear
6:35 AM29.1 °F8.4 °F42 %30.37 in10.0 miNW (310°)9.2 mphClear
6:55 AM28.9 °F7.7 °F41 %30.39 in10.0 miNW (320°)10.4 mphClear
7:15 AM27.5 °F7.3 °F43 %30.40 in10.0 miNNW (330°)10.4 mphClear
7:35 AM28.6 °F7.5 °F41 %30.40 in10.0 miNorth (350°)10.4 mphClear
7:55 AM28.9 °F7.0 °F40 %30.39 in10.0 miNW (310°)5.8 mphClear
8:15 AM31.1 °F7.5 °F37 %30.40 in10.0 miNW (310°)9.2 mphClear
8:35 AM33.3 °F7.7 °F34 %30.39 in10.0 miNW (320°)9.2 mphClear
8:55 AM34.9 °F7.9 °F32 %30.40 in10.0 miNW (320°)9.2 mphClear
9:15 AM37.8 °F9.1 °F31 %30.41 in10.0 miNNW (340°)8.1 mphClear
9:35 AM39.6 °F9.7 °F29 %30.41 in10.0 miNorth (350°)5.8 mphClear
9:55 AM41.0 °F9.5 °F27 %30.41 in10.0 miNorth (350°)10.4 mphClear
10:15 AM42.6 °F9.5 °F26 %30.42 in10.0 miNorth (10°)8.1 mphClear
10:35 AM44.6 °F9.5 °F24 %30.42 in10.0 miNorth (350°)9.2 mphClear
10:55 AM46.4 °F9.7 °F23 %30.41 in10.0 miNorth (10°)9.2 mphClear
11:15 AM47.8 °F9.9 °F22 %30.41 in10.0 miNorth (10°)9.2 mphClear
11:35 AM49.8 °F9.9 °F20 %30.40 in10.0 miNorth (360°)6.9 mphClear
11:55 AM51.6 °F9.7 °F19 %30.38 in10.0 miNNE (20°)8.1 mphClear
12:15 PM53.2 °F9.5 °F17 %30.36 in10.0 miNorth (360°)8.1 mphClear
12:35 PM55.0 °F10.0 °F17 %30.35 in10.0 miNorth (360°)10.4 mphClear
12:55 PM56.3 °F9.7 °F16 %30.34 in10.0 miNNW (340°)8.1 mphClear
1:15 PM57.4 °F9.5 °F15 %30.33 in10.0 miNNW (340°)5.8 mphClear
1:35 PM58.1 °F9.7 °F15 %30.32 in10.0 miNorth (10°)5.8 mphClear
1:55 PM58.5 °F9.5 °F14 %30.30 in10.0 miNorth (360°)5.8 mphClear
2:15 PM59.2 °F9.3 °F14 %30.30 in10.0 miNorth (10°)3.5 mphClear
2:35 PM59.0 °F9.0 °F14 %30.30 in10.0 miCalmClear
2:55 PM59.7 °F9.1 °F14 %30.30 in10.0 miCalmClear
3:15 PM60.4 °F8.8 °F13 %30.29 in10.0 miCalmClear
3:35 PM61.9 °F9.3 °F13 %30.29 in10.0 miCalmClear
3:55 PM61.3 °F9.3 °F13 %30.29 in10.0 miCalmClear
4:15 PM60.8 °F9.1 °F13 %30.29 in10.0 miCalmClear
4:35 PM59.0 °F9.3 °F14 %30.29 in10.0 miSSE (150°)3.5 mphClear
4:55 PM56.8 °F9.3 °F15 %30.28 in10.0 miSSE (160°)3.5 mphClear
5:15 PM54.7 °F10.4 °F17 %30.28 in10.0 miCalmClear
5:35 PM50.5 °F10.2 °F20 %30.28 in10.0 miCalmClear
5:55 PM46.6 °F10.2 °F23 %30.28 in10.0 miSSW (210°)3.5 mphClear
6:15 PM45.3 °F10.4 °F24 %30.29 in10.0 miWest (260°)3.5 mphClear
6:35 PM44.1 °F10.4 °F25 %30.29 in10.0 miCalmClear
6:55 PM42.6 °F10.2 °F27 %30.29 in10.0 miNNW (330°)3.5 mphClear
7:15 PM41.5 °F10.2 °F28 %30.30 in10.0 miWNW (290°)4.6 mphClear
7:35 PM41.9 °F10.2 °F27 %30.30 in10.0 miWest (280°)5.8 mphClear
7:55 PM42.4 °F10.2 °F27 %30.30 in10.0 miNW (320°)3.5 mphClear
8:15 PM40.3 °F10.4 °F29 %30.30 in10.0 miWest (280°)5.8 mphClear
8:35 PM40.1 °F10.2 °F29 %30.30 in10.0 miWest (280°)5.8 mphClear
8:55 PM39.4 °F10.2 °F30 %30.30 in10.0 miWest (270°)5.8 mphClear
9:15 PM39.6 °F10.2 °F30 %30.30 in10.0 miWest (280°)5.8 mphClear
9:35 PM38.3 °F9.9 °F31 %30.31 in10.0 miCalmClear
9:55 PM37.4 °F9.9 °F32 %30.33 in10.0 miCalmClear
10:15 PM38.5 °F8.6 °F29 %30.32 in10.0 miCalmClear
10:55 PM37.9 °F9.5 °F31 %30.32 in10.0 miWSW (240°)3.5 mphClear
11:15 PM36.0 °F9.5 °F33 %30.32 in10.0 miWSW (240°)5.8 mphClear
11:35 PM36.9 °F9.5 °F32 %30.31 in10.0 miWSW (250°)5.8 mphClear
11:55 PM35.1 °F9.5 °F35 %30.31 in10.0 miWNW (290°)3.5 mphClear
Hourly data recorded from KONM, located miles away from Tiffany, New Mexico







STORIES FROM OUR PARTNERS